VK2RZ Weather Reports


time (UTC)temp
F
wind
direction
speed
knots
gust
knots
rain 1hr
in
rain 24hr
in
rain mn
in
humidity
%
barometer
mb
20260506182055 53 0 0.0 0.0 0.00 0.00 0.00 8 1013.1
20260506181055 54 0 0.0 0.0 0.00 0.00 0.00 8 1012.9
20260506180055 54 272 0.9 3.5 0.00 0.00 0.00 8 1012.8
20260506175055 55 0 0.0 2.6 0.00 0.00 0.00 8 1012.8
20260506174055 54 303 1.7 3.5 0.00 0.00 0.00 8 1012.9
20260506173055 54 253 1.7 2.6 0.00 0.00 0.00 8 1013.1
20260506172055 54 250 2.6 3.5 0.00 0.00 0.00 8 1013.2
20260506171055 54 0 0.0 0.0 0.00 0.00 0.00 8 1013.0
20260506170055 55 0 0.0 0.0 0.00 0.00 0.00 8 1013.1
20260506165055 55 0 0.0 0.9 0.00 0.00 0.00 8 1013.2
20260506164055 56 0 0.0 0.0 0.00 0.00 0.00 8 1013.4
20260506163055 57 0 0.0 2.6 0.00 0.00 0.00 8 1013.4
20260506162055 57 0 0.0 2.6 0.00 0.00 0.00 8 1013.6
20260506161055 57 0 0.0 2.6 0.00 0.00 0.00 8 1013.7
20260506160055 57 249 0.9 1.7 0.00 0.00 0.00 8 1013.8
20260506155055 57 249 0.9 3.5 0.00 0.00 0.00 8 1013.8
20260506154055 58 264 1.7 3.5 0.00 0.00 0.00 8 1014.0
20260506153055 58 234 2.6 4.3 0.00 0.00 0.00 8 1014.0
20260506152055 58 272 3.5 4.3 0.00 0.00 0.00 8 1014.1
20260506151054 59 228 2.6 2.6 0.00 0.00 0.00 8 1014.1
20260506150054 59 243 3.5 4.3 0.00 0.00 0.00 8 1014.2
20260506145054 59 229 1.7 2.6 0.00 0.00 0.00 8 1014.2
20260506144053 59 0 0.0 0.0 0.00 0.00 0.00 8 1014.2
20260506143052 59 0 0.0 1.7 0.00 0.00 0.00 8 1014.4
20260506142052 60 210 2.6 2.6 0.00 0.00 0.00 8 1014.4
20260506141052 59 219 1.7 1.7 0.00 0.00 0.00 8 1014.3
20260506140052 59 228 1.7 1.7 0.00 0.00 0.00 8 1014.4
20260506135052 59 231 0.9 0.9 0.00 0.00 0.00 8 1014.4
20260506134052 59 0 0.0 1.7 0.00 0.00 0.00 8 1014.5
20260506133052 59 201 2.6 7.0 0.00 0.00 0.00 8 1014.6
20260506132052 59 238 1.7 1.7 0.00 0.00 0.00 8 1014.6
20260506131052 59 248 0.9 1.7 0.00 0.00 0.00 8 1014.8
20260506130052 58 289 2.6 3.5 0.00 0.00 0.00 8 1014.9
20260506125052 58 0 0.0 0.0 0.00 0.00 0.00 8 1015.0
20260506124052 58 0 0.0 0.0 0.00 0.00 0.00 8 1015.0
20260506123052 59 0 0.0 0.0 0.00 0.00 0.00 8 1015.3
20260506122052 59 0 0.0 0.0 0.00 0.00 0.00 8 1015.4
20260506121051 60 304 0.9 1.7 0.00 0.00 0.00 8 1015.6
20260506120050 60 0 0.0 0.0 0.00 0.00 0.00 8 1015.7
20260506115050 61 0 0.0 0.0 0.00 0.00 0.00 8 1015.9
20260506114050 61 0 0.0 0.0 0.00 0.00 0.00 8 1015.9
20260506113049 61 0 0.0 0.0 0.00 0.00 0.00 8 1015.9
20260506112049 61 304 1.7 1.7 0.00 0.00 0.00 8 1016.1
20260506111049 61 304 0.9 2.6 0.00 0.00 0.00 8 1016.2
20260506110049 61 305 1.7 2.6 0.00 0.00 0.00 8 1016.2
20260506105049 61 306 1.7 2.6 0.00 0.00 0.00 8 1016.2
20260506104049 61 307 1.7 3.5 0.00 0.00 0.00 8 1016.2
20260506103049 62 308 2.6 3.5 0.00 0.00 0.00 8 1016.1
20260506102049 62 310 1.7 2.6 0.00 0.00 0.00 8 1016.2
20260506101049 62 317 1.7 2.6 0.00 0.00 0.00 8 1016.3
20260506100049 63 320 1.7 3.5 0.00 0.00 0.00 8 1016.3
20260506095049 63 333 2.6 2.6 0.00 0.00 0.00 8 1016.2
20260506094049 63 339 0.9 3.5 0.00 0.00 0.00 8 1016.2
20260506093048 63 343 3.5 3.5 0.00 0.00 0.00 8 1016.3
20260506092048 63 11 1.7 1.7 0.00 0.00 0.00 8 1016.4
20260506091048 63 0 0.0 0.0 0.00 0.00 0.00 8 1016.3
20260506090048 63 0 0.0 0.0 0.00 0.00 0.00 8 1016.4
20260506085048 63 0 0.0 0.0 0.00 0.00 0.00 8 1016.4
20260506084048 63 0 0.0 0.0 0.00 0.00 0.00 8 1016.4
20260506083048 63 0 0.0 0.0 0.00 0.00 0.00 8 1016.4
20260506082048 63 0 0.0 0.0 0.00 0.00 0.00 8 1016.4
20260506081048 62 0 0.0 0.0 0.00 0.00 0.00 8 1016.3
20260506073048 63 0 0.0 0.0 0.00 0.00 0.00 8 1016.3
20260506072048 63 0 0.0 0.0 0.00 0.00 0.00 8 1016.2
20260506071048 63 0 0.0 0.0 0.00 0.00 0.00 8 1016.2
20260506062048 65 0 0.0 0.9 0.00 0.00 0.00 7 1016.5
20260506061048 66 116 0.9 1.7 0.00 0.00 0.00 7 1016.5
20260506051048 68 74 1.7 3.5 0.00 0.00 0.00 7 1016.7
20260506045047 68 120 1.7 2.6 0.00 0.00 0.00 7 1017.1
20260506044047 68 118 3.5 4.3 0.00 0.00 0.00 6 1017.1
20260506043047 69 77 1.7 5.2 0.00 0.00 0.00 6 1017.1
20260506042047 69 122 1.7 3.5 0.00 0.00 0.00 6 1017.1
20260506041047 70 102 6.1 7.0 0.00 0.00 0.00 6 1017.1
20260506040047 69 105 0.9 3.5 0.00 0.00 0.00 6 1017.2
20260506035047 70 108 4.3 4.3 0.00 0.00 0.00 6 1017.4
20260506034047 70 102 3.5 6.1 0.00 0.00 0.00 6 1017.4
20260506033047 69 27 2.6 3.5 0.00 0.00 0.00 6 1017.5
20260506032047 70 122 4.3 4.3 0.00 0.00 0.00 6 1017.6
20260506031047 70 127 1.7 2.6 0.00 0.00 0.00 6 1017.8
20260506030047 69 0 0.0 2.6 0.00 0.00 0.00 6 1018.0
20260506025047 69 175 1.7 3.5 0.00 0.00 0.00 6 1018.2
20260506024047 69 158 1.7 3.5 0.00 0.00 0.00 6 1018.5
20260506023046 68 167 3.5 3.5 0.00 0.00 0.00 6 1018.6
20260506022046 69 162 0.9 3.5 0.00 0.00 0.00 6 1018.7
20260506021046 68 195 2.6 2.6 0.00 0.00 0.00 6 1018.8
20260506020046 67 0 0.0 0.9 0.00 0.00 0.00 6 1019.2
20260506015046 67 210 2.6 3.5 0.00 0.00 0.00 6 1019.4
20260506014046 68 207 1.7 4.3 0.00 0.00 0.00 6 1019.5
20260506013046 68 218 1.7 3.5 0.00 0.00 0.00 6 1019.6
20260506012046 68 224 2.6 3.5 0.00 0.00 0.00 6 1019.8
20260506011046 67 241 2.6 2.6 0.00 0.00 0.00 6 1019.9
20260506010046 66 269 1.7 4.3 0.00 0.00 0.00 6 1019.9
20260506005046 64 0 0.0 4.3 0.00 0.00 0.00 6 1020.1
20260506004046 64 249 3.5 7.8 0.00 0.00 0.00 6 1020.2
20260506003046 64 252 2.6 3.5 0.00 0.00 0.00 6 1020.4
20260506002046 63 262 3.5 7.8 0.00 0.00 0.00 6 1020.3
20260506001046 63 249 4.3 7.8 0.00 0.00 0.00 6 1020.4
20260506000046 63 264 7.0 7.8 0.00 0.00 0.00 6 1020.5
20260505235046 63 247 7.8 7.8 0.00 0.00 0.00 6 1020.5
20260505234046 62 247 5.2 7.0 0.00 0.00 0.00 6 1020.6
20260505233046 62 255 7.0 10.4 0.00 0.00 0.00 6 1020.5
20260505232046 61 239 5.2 8.7 0.00 0.00 0.00 6 1020.4
20260505231046 61 254 3.5 9.6 0.00 0.00 0.00 6 1020.4
20260505230046 60 221 3.5 6.1 0.00 0.00 0.00 6 1020.4
20260505225046 59 259 4.3 7.8 0.00 0.00 0.00 6 1020.3
20260505224046 59 245 8.7 11.3 0.00 0.00 0.00 7 1020.4
20260505223046 58 248 5.2 9.6 0.00 0.00 0.00 7 1020.4
20260505222046 58 260 13.0 14.8 0.00 0.00 0.00 7 1020.5
20260505221046 57 244 8.7 12.2 0.00 0.00 0.00 7 1020.4
20260505220046 57 246 7.8 9.6 0.00 0.00 0.00 7 1020.4
20260505215046 57 230 9.6 13.0 0.00 0.00 0.00 7 1020.4
20260505214046 56 251 11.3 13.0 0.00 0.00 0.00 7 1020.5
20260505213046 55 245 7.8 8.7 0.00 0.00 0.00 7 1020.5
20260505212046 55 213 4.3 7.8 0.00 0.00 0.00 7 1020.4
20260505211046 55 256 11.3 14.8 0.00 0.00 0.00 7 1020.3
20260505210046 55 248 3.5 9.6 0.00 0.00 0.00 7 1020.3
20260505205046 55 237 5.2 7.0 0.00 0.00 0.00 7 1020.2
20260505204046 55 254 7.0 9.6 0.00 0.00 0.00 7 1020.2
20260505203046 55 250 5.2 11.3 0.00 0.00 0.00 7 1020.2
20260505202046 56 243 4.3 7.8 0.00 0.00 0.00 7 1020.1
20260505201046 56 252 10.4 13.9 0.00 0.00 0.00 7 1020.0
20260505200045 56 245 5.2 13.9 0.00 0.00 0.00 7 1020.0
20260505195045 56 221 10.4 12.2 0.00 0.00 0.00 7 1020.0
20260505194045 56 224 5.2 8.7 0.00 0.00 0.00 7 1020.0
20260505193045 56 258 7.0 13.0 0.00 0.00 0.00 7 1019.9
20260505192045 56 220 4.3 10.4 0.00 0.00 0.00 7 1020.0
20260505191045 56 225 8.7 11.3 0.00 0.00 0.00 7 1020.0
20260505190044 56 245 9.6 11.3 0.00 0.00 0.00 7 1020.1
20260505185044 56 238 9.6 11.3 0.00 0.00 0.00 7 1020.0
20260505184044 56 244 4.3 8.7 0.00 0.00 0.00 7 1020.0
20260505183044 56 264 7.0 8.7 0.00 0.00 0.00 7 1020.0